Showing default

ACS 3, 59588

Orbit data source: Space-Track

ACS 3, 59588 is a payload satellite owned by ARC (US) in SSO that was launched on Tue, 23 Apr 2024 UTC via an ELECTRON launch vehicle from the Rocket Lab Launch Complex (RLLC). Payload-class satellites include a variety of spacecraft equipped with specific instruments for various scientific and technological missions. These include communications satellites like Starlink; space stations such as the ISS; scientific satellites like the Hubble; Earth observation satellites from companies like Planet Labs, Umbra, and HawkEye 360; GPS; miniature CubeSats for education and research; and military/defense satellites.

Loading next visibility...
Identifier
59588, 2024-077B
Orbit
SSO
Last TLE update
16 hours ago
Origin
Manufacturer
ARC/NANAVU
Mission
Operational spacecraft
Bus & Motor
CUBESAT 12U, Unknown motor
Mass
16.1 kg wet, 16.1 kg dry
Launch date (UTC)
2024-04-23 (1 year ago)
Launch vehicle
ELECTRON
Launch site
Rocket Lab Launch Complex (RLLC)
Object type
Payload
Rocket body
Debris
Shape & HBR
Unknown
Radar Cross Section
Large (>1 m²)

Expand to show TLE details & history

TLE from 16 hours ago
0 ACS 3
1 59588U 24077B   25128.61005362  .00009391  00000-0  93549-2 0  9990
2 59588  97.4808 131.2950 0050246  78.4781 282.2011 13.77576571 52042
Epoch: 2025-05-08T14:38Z
Definitive object data (Epoch: 2025-05-08T14:38:28.632Z)
Latitude
-0.00007°
Longitude
44.99763°
Altitude
967.757 km
Speed
7.372 km/s
True Right ascension
08h 45m 10s
True Declination
0° 00' 00"
Sunlit
Object was in daylight at TLE epoch
Visualization TLE readout
Latitude
38.93323°
Longitude
-128.40728°
Altitude
961.643 km
Speed
7.383 km/s
Apparent Right ascension
23h 52m 58s
Apparent Declination
3° 55' 56"
Sunlit
Object is in daylight
Visualization observer readout
Local Sidereal Time
15:09:15
Azimuth
57.946° ENE
Elevation
-27.212°
Doppler factor
1
Orbital elements
Apogee altitude
1,006.576 km
Perigee altitude
932.737 km
Semi-major axis
7,347.794 km
Eccentricity
0.0050246
Inclination
97.4808°
RAAN
131.295°
Arg. of periapsis
78.4781°
True anomaly
281.63759°
Mean anomaly
282.2011°
Eccentric anomaly
281.91942°
Mean motion
3.44594 °/min
BSTAR
0.0093549
Orbital period
104.47 mins
Loading maneuver chart data...
Loading SW <> Apogee altitude chart data...
Loading historical data...
Loading historical data...
Loading historical data...
Loading historical data...
Loading historical data...
Loading historical data...
Loading historical data...
Other satellites on launch #77 in the year 2024 (2024-04-23 UTC)

ACS 3 Visibility forecast

Observer location: undefined°, undefined°

Span
Click to sort rows by Start time (UTC) header in descending order
Start Az.
Max El. time (UTC)
Max El. Az.
Max El.
End time (UTC)
End Az.
10 mins2025-05-09 12:09:19.542Z32.454° NE2025-05-09 12:14:19.542Z97.637° ESE30.232°2025-05-09 12:19:19.542Z158.845° S
9 mins2025-05-09 13:53:19.542Z347.173° N2025-05-09 13:57:19.542Z294.727° NW28.735°2025-05-09 14:02:19.542Z232.102° WSW
9 mins2025-05-09 23:53:19.542Z153.265° SSE2025-05-09 23:57:19.542Z85.674° E42.883°2025-05-10 00:02:19.542Z354.856° N
5 mins2025-05-10 01:39:19.542Z247.893° W2025-05-10 01:41:19.542Z270.73° WNW15.646°2025-05-10 01:44:19.542Z303.443° NW
|